Info: BRI MANDIRI OFFLINE.. BCA BNI CIMBNIAGA ONLINE | HARAP SELALU MELIHAT REKENING AKTIF DI MENU DEPOSIT SEBELUM TRANSFER DANA..LINK ALTERNATIF http:/kitasatu88.asia/
REGISTER JACKPOT DEPOSIT REFERRAL DOWNLOAD APPS PROMOSI VIP
JACKPOT



   

Jackpot Winner Ceme

Jackpot dilihat dari gabungan kartu pemain dengan kartu bandar. Bandar harus membeli jackpot sebanyak jumlah player yang sedang duduk. Sebagai contoh bila terdapat 3 pemain duduk bermain, dan bandar memutuskan untuk membeli jackpot Rp 1.000, maka pada periode tersebut bandar akan membeli jackpot sebanyak 3xRp1.000 = Rp3.000.

Jackpot bukanlah suatu keharusan untuk dibeli, namun kami memberikan suatu fitur tambahan untuk member tercinta dari www.menangpk88.pw.

Terdapat tiga pilihan harga jackpot yang bisa anda beli yaitu :100,500 dan 1000 rupiah.

Hadiah dari Multi jackpot system www.menangpk88.pw

  1. Murni Kecil x 50 harga jackpot yang anda beli.
      (contoH:anda membeli 1000 maka:1000 X 50 = 50.000)
  2. Murni Besar x 50 harga jackpot yang anda beli
      (contoH:anda membeli 1000 maka:1000 X 50 = 50.000)
  3. BALAK x 200 harga jackpot yang anda beli
      (contoH:anda membeli 1000 maka:1000 X 200 = 200.000)
  4. ENAM DEWA x 6666 harga jackpot yang anda beli
      (contoH:anda membeli 1000 maka:1000 X 6666 = 6.666.000)

Demikian adalah penjelasan dari Multi Jackpot www.menangpk88.pw terima kasih dan selamat bermain salam hoki dari kami


Jackpot Winner

TOP ENAM DEWA
No. Tanggal Nama Price Win
1 19/01 02:18 JULIAA507 murni enam 666,600
2 19/01 01:51 ITILSEMPIT murni enam 6,666,000
3 19/01 01:50 YULII14 murni enam 6,666,000
4 19/01 01:28 TUANMUDA89 murni enam 666,600
5 19/01 01:23 ROJER056 murni enam 666,600
TOP BALAK
No. Tanggal Nama Price Win
1 19/01 02:26 C426449D balak 100,000
2 19/01 02:26 AYAMRED balak 20,000
3 19/01 02:26 JONKAY02 balak 200,000
4 19/01 02:25 FERAVIPN balak 200,000
5 19/01 02:24 GEAOCTA balak 20,000
LATEST JACKPOT
No. Tanggal Nama Price Win
1 19/01 02:27 BA5417EN murni besar 25,000
2 19/01 02:27 TOKEKQQ murni besar 5,000
3 19/01 02:27 RAHMADZLD murni besar 25,000
4 19/01 02:26 DARURAT007 murni besar 25,000
5 19/01 02:26 AQUA4118 murni besar 5,000
6 19/01 02:26 HGLS1717 murni besar 50,000
7 19/01 02:26 ALEXISPLAY murni kecil 5,000
8 19/01 02:26 BFF51D10 murni kecil 25,000
9 19/01 02:26 TONNY44 murni kecil 25,000
10 19/01 02:26 NDYS murni besar 50,000
11 19/01 02:26 REYES009 murni kecil 50,000
12 19/01 02:26 MARCO112 murni kecil 50,000
13 19/01 02:26 J1ERU murni kecil 5,000
14 19/01 02:26 KODIR63 murni kecil 25,000
15 19/01 02:26 SINJO91 murni kecil 25,000
16 19/01 02:26 MANTEN1 murni besar 50,000
17 19/01 02:26 DB88535 murni besar 25,000
18 19/01 02:26 C426449D balak 100,000
19 19/01 02:26 UGIX1988 murni besar 25,000
20 19/01 02:26 AYAMRED balak 20,000
21 19/01 02:26 JONKAY02 balak 200,000
22 19/01 02:25 BA5417EN murni kecil 25,000
23 19/01 02:25 PUTRO_9 murni kecil 25,000
24 19/01 02:25 FERAVIPN balak 200,000
25 19/01 02:25 GLCG4XT9T2 murni besar 50,000
26 19/01 02:25 LB88992 murni besar 50,000
27 19/01 02:25 T4DARVANO murni kecil 50,000
28 19/01 02:25 NAYA555 murni besar 50,000
29 19/01 02:25 ARIE6421 murni kecil 25,000
30 19/01 02:25 BHOLENK15 murni kecil 5,000
31 19/01 02:25 SNIFER32 murni besar 50,000
32 19/01 02:25 TORI882 murni kecil 50,000
33 19/01 02:25 LAW1981 murni kecil 50,000
34 19/01 02:25 YULII14 murni besar 50,000
35 19/01 02:25 SABARAHA99 murni besar 50,000
36 19/01 02:24 GEAOCTA balak 20,000
37 19/01 02:24 HENDRIKIKI murni kecil 5,000
38 19/01 02:24 RAHMADZLD murni kecil 25,000
39 19/01 02:24 ARIE6421 murni kecil 25,000
40 19/01 02:24 MARCO112 murni besar 50,000
41 19/01 02:24 SELEMET99 murni besar 50,000
42 19/01 02:24 KAALEMP0NG murni kecil 50,000
43 19/01 02:24 NAYA555 murni kecil 50,000
44 19/01 02:24 WWT10 balak 20,000
45 19/01 02:24 JUMIT99 murni kecil 5,000
46 19/01 02:23 TEMPEKTUO1 murni besar 50,000
47 19/01 02:23 C426449D murni kecil 25,000
48 19/01 02:23 GABUTTT balak 200,000
49 19/01 02:23 KODIR63 murni kecil 25,000
50 19/01 02:23 MONKSSS murni kecil 50,000
Dewa.FM